[[{"header":{"parameterUnit":"m.s-1","parameterCategory":1,"la1":30.2991,"la2":30.254,"lo1":-89.0895,"lo2":-89.0444,"dy":0.0017,"dx":0.0017,"nx":28,"ny":28,"refTime":"2024-08-06T21:00:00:Z","depth":0,"parameterNumber":2,"parameterNumberName":"U-component_of_WINDS"},"data":[0,0,0,0,0,0,0,0,0,0,0,0,0,0,0,0,0,0,0,0,0,0,0,0,0,0,0,0,0,0,0,0,0,0,0,0,0,0,0,0,0,0,0,0,0,0,0,0,0,0,0,0,0,0,0,0,0,0,2.2998,2.2998,0,2.3051,2.3052,2.3052,2.3,2.2997,2.2995,2.2993,2.3049,2.3052,2.3056,0,0,0,0,0,0,0,0,0,0,0,0,0,2.2853,2.2856,2.2998,2.2998,2.2999,2.3051,2.3052,2.3052,2.3,2.2997,2.2995,2.2992,2.3048,2.3052,2.3056,0,0,0,0,0,0,0,0,0,0,0,0,0,2.2912,2.2857,2.2998,2.2979,2.2978,2.3051,2.3052,2.3053,2.3,2.2997,2.2994,2.2991,2.3046,2.3051,2.3056,2.315,0,0,2.3072,2.3074,0,0,0,0,0,0,0,0,2.2909,2.2917,2.2981,2.298,2.2979,2.3015,2.3021,2.3085,2.3001,2.2992,2.2993,2.299,2.304,2.3046,2.3063,2.3153,2.3155,2.3072,2.3076,2.3078,2.3079,0,0,0,0,0,0,0,2.2905,2.2915,2.3019,2.2982,2.2981,2.2969,2.2974,2.3033,2.3033,2.2992,2.2989,2.2996,2.3039,2.3058,2.3063,2.3156,2.3072,2.3077,2.308,2.3082,2.3329,2.3332,0,0,0,0,0,0,2.2902,2.2912,2.3017,2.302,2.2936,2.2974,2.298,2.3007,2.3032,2.3033,2.2998,2.2993,2.3051,2.3058,2.3065,2.3179,2.3078,2.3083,2.3085,2.3326,2.333,2.3333,0,0,0,0,0,0,2.2899,2.2912,2.3015,2.2965,2.2977,2.298,2.3011,2.301,2.3028,2.3037,2.3037,2.3017,2.3048,2.3058,2.313,2.318,2.3085,2.3089,2.3321,2.3327,2.3332,2.3405,0,0,0,0,0,0,2.2895,2.2911,2.2946,2.2966,2.298,2.3078,2.3014,2.3013,2.3037,2.3031,2.3054,2.3055,2.3047,2.3123,2.3135,2.3185,2.3093,2.3317,2.3324,2.333,2.3398,2.3412,2.3424,0,0,0,0,0,2.289,2.2965,2.2948,2.2961,2.3024,2.3081,2.3089,2.3078,2.3041,2.3077,2.3083,2.3054,2.3172,2.3131,2.3144,2.3196,2.3314,2.3322,2.3329,2.3393,2.341,2.3424,0,0,0,0,0,0,2.295,2.2967,2.2949,2.3032,2.3056,2.3072,2.3117,2.3096,2.313,2.3123,2.3108,2.3114,2.319,2.32,2.3154,2.329,2.3237,2.3248,2.3281,2.3297,2.3309,2.3306,2.3098,0,0,0,0,0,2.2973,2.3018,2.303,2.3102,2.3115,2.3114,2.3139,2.3128,2.3152,2.3162,2.3173,2.3198,2.3241,2.3269,2.3309,2.3399,2.3405,2.3442,2.3455,2.3466,2.3476,2.3527,2.3544,2.3359,2.3359,2.3359,0,0,2.3021,2.3035,2.3064,2.3114,2.3132,2.3179,2.3123,2.3175,2.3211,2.317,2.3239,2.3248,2.3275,2.3358,2.3395,2.3368,2.3528,2.3476,2.3484,2.3488,2.3537,2.3554,2.357,2.3365,2.3364,2.3363,0,0,2.3132,2.3147,2.3209,2.3228,2.3255,2.3255,2.327,2.3291,2.3295,2.3364,2.3335,2.3378,2.3451,2.3472,2.3493,2.3615,2.3591,2.3628,2.3696,2.3746,2.3761,2.3774,2.3819,2.3835,2.3638,2.3638,2.3638,0,2.3188,2.3258,2.3244,2.33,2.3323,2.3289,2.3353,2.3372,2.3411,2.3429,2.3399,2.3492,2.3507,2.3596,2.3626,2.3643,2.3661,2.3626,2.376,2.3773,2.3784,2.3828,2.3844,2.3643,2.3642,2.3642,2.3641,0,2.3326,2.3376,2.3423,2.3462,2.3491,2.3551,2.3547,2.3578,2.3566,2.3569,2.3641,2.3659,2.3702,2.3722,2.371,2.381,2.3793,2.3762,2.3709,2.3807,2.3847,2.3863,2.3649,2.3648,2.3646,2.3645,0,0,2.3476,2.3508,2.3526,2.3544,2.3572,2.3611,2.367,2.3713,2.3741,2.3769,2.3819,2.3883,2.3855,2.3879,2.3869,2.3913,2.4011,2.3876,2.3877,2.3902,2.4124,2.4148,2.4167,2.3995,2.3998,2.4,2.4122,0,2.3589,2.3691,2.3681,2.3778,2.3825,2.3794,2.3846,2.387,2.3875,2.3916,2.3921,2.3968,2.3926,2.394,2.3982,2.399,2.4055,2.3981,2.4043,2.4045,2.4038,2.4188,2.4213,2.4328,2.4138,2.4141,2.4142,0,2.3735,2.3769,2.3871,2.3895,2.3914,2.3961,2.4001,2.404,2.4067,2.4067,2.4095,2.4078,2.4139,2.4084,2.4169,2.4118,2.4143,2.4151,2.4155,2.4161,2.41,2.42,2.4363,2.4381,2.4167,2.4165,2.4163,0,2.3836,2.3908,2.3979,2.3995,2.4024,2.4058,2.4071,2.4095,2.4122,2.4158,2.4176,2.4217,2.4241,2.4274,2.427,2.423,2.4357,2.4301,2.436,2.436,2.4388,2.4387,2.456,2.4403,2.4402,2.4402,2.4402,0,2.3964,2.4028,2.4025,2.4068,2.414,2.4129,2.42,2.421,2.4232,2.4278,2.4254,2.4298,2.4289,2.4333,2.433,2.4402,2.4412,2.4415,2.4414,2.4418,2.4418,2.4435,2.4427,2.4407,2.4406,2.4405,2.4404,0,2.4089,2.4089,2.4164,2.4186,2.4193,2.4245,2.4264,2.4306,2.431,2.4369,2.4382,2.4388,2.4439,2.4438,2.4495,2.4494,2.4582,2.4571,2.4573,2.4571,2.4631,2.4626,2.4822,2.4848,2.4673,2.4674,2.4676,0,2.4171,2.422,2.4247,2.4277,2.4293,2.434,2.4368,2.436,2.439,2.4426,2.4465,2.4513,2.4552,2.4635,2.4645,2.469,2.4681,2.4746,2.4687,2.4691,2.4684,2.4681,2.4687,2.4758,2.476,2.4762,2.4763,0,2.4318,2.4316,2.4357,2.44,2.4434,2.4467,2.4497,2.4523,2.4518,2.4554,2.4606,2.4637,2.4697,2.4746,2.479,2.4804,2.4784,2.4782,2.4798,2.4803,2.4803,2.4806,2.4606,2.4777,2.4776,2.4775,2.4774,2.4773,2.4425,2.4468,2.4494,2.4542,2.4564,2.4594,2.4635,2.4644,2.4688,2.4736,2.4728,2.4787,2.4816,2.4872,2.4891,2.4938,2.4915,2.4938,2.4944,2.495,2.4958,2.4795,2.4946,2.4945,2.4945,2.4944,2.4944,0,2.4571,2.4588,2.4632,2.4675,2.4714,2.4691,2.4724,2.4757,2.481,2.4837,2.4877,2.4938,2.4986,2.5001,2.5048,2.5083,2.5075,2.5096,2.5094,2.5098,2.4975,2.4957,2.5102,2.5102,2.5102,2.5102,2.5102,2.5102,2.4652,2.4724,2.4726,2.481,2.4825,2.4883,2.4904,2.4932,2.4954,2.5024,2.5064,2.5074,2.5097,2.5146,2.519,2.5193,2.5213,2.5238,2.5237,2.5122,2.5106,2.5091,2.5074,2.5242,2.5242,2.5357,2.5358,2.5359]},{"header":{"parameterUnit":"m.s-1","parameterCategory":1,"la1":30.2991,"la2":30.254,"lo1":-89.0895,"lo2":-89.0444,"dy":0.0017,"dx":0.0017,"nx":28,"ny":28,"refTime":"2024-08-06T21:00:00:Z","depth":0,"parameterNumber":3,"parameterNumberName":"V-component_of_WINDS"},"data":[0,0,0,0,0,0,0,0,0,0,0,0,0,0,0,0,0,0,0,0,0,0,0,0,0,0,0,0,0,0,0,0,0,0,0,0,0,0,0,0,0,0,0,0,0,0,0,0,0,0,0,0,0,0,0,0,0,0,-1.5406,-1.5406,0,-1.5438,-1.5439,-1.5439,-1.5443,-1.5443,-1.5443,-1.5442,-1.5478,-1.5479,-1.548,0,0,0,0,0,0,0,0,0,0,0,0,0,-1.5351,-1.5352,-1.5406,-1.5406,-1.5407,-1.5438,-1.5439,-1.5439,-1.5443,-1.5443,-1.5442,-1.5442,-1.5478,-1.5479,-1.5481,0,0,0,0,0,0,0,0,0,0,0,0,0,-1.5378,-1.5353,-1.5406,-1.5413,-1.5414,-1.5438,-1.5439,-1.5439,-1.5443,-1.5443,-1.5442,-1.5442,-1.5477,-1.5479,-1.5481,-1.5502,0,0,-1.5486,-1.5487,0,0,0,0,0,0,0,0,-1.5377,-1.538,-1.5411,-1.5412,-1.5413,-1.5436,-1.5432,-1.546,-1.5443,-1.5432,-1.5442,-1.5442,-1.5465,-1.5467,-1.5475,-1.5503,-1.5505,-1.5487,-1.5488,-1.5488,-1.5489,0,0,0,0,0,0,0,-1.5375,-1.5379,-1.5419,-1.5412,-1.5413,-1.5415,-1.5418,-1.5438,-1.5451,-1.5433,-1.5433,-1.5437,-1.5465,-1.5473,-1.5475,-1.5505,-1.5487,-1.5488,-1.5489,-1.549,-1.5552,-1.5553,0,0,0,0,0,0,-1.5371,-1.5377,-1.5418,-1.542,-1.5393,-1.5416,-1.542,-1.5429,-1.545,-1.5453,-1.5437,-1.5437,-1.547,-1.5473,-1.5477,-1.5502,-1.5488,-1.549,-1.5491,-1.5552,-1.5552,-1.5553,0,0,0,0,0,0,-1.537,-1.5375,-1.5417,-1.5399,-1.5404,-1.5418,-1.5428,-1.543,-1.5438,-1.5454,-1.5456,-1.5443,-1.547,-1.5474,-1.5495,-1.5503,-1.5491,-1.5493,-1.5551,-1.5552,-1.5553,-1.5553,0,0,0,0,0,0,-1.5369,-1.5375,-1.5382,-1.5399,-1.5405,-1.5433,-1.5429,-1.5431,-1.5441,-1.5441,-1.5459,-1.5462,-1.547,-1.5492,-1.5497,-1.5506,-1.5494,-1.555,-1.5552,-1.5552,-1.5552,-1.5554,-1.5555,0,0,0,0,0,-1.5367,-1.5382,-1.5382,-1.5387,-1.5414,-1.5434,-1.5438,-1.5445,-1.5441,-1.5449,-1.5459,-1.5461,-1.5502,-1.5494,-1.55,-1.5509,-1.555,-1.5551,-1.5552,-1.5552,-1.5553,-1.5555,0,0,0,0,0,0,-1.5366,-1.5384,-1.5385,-1.5405,-1.5418,-1.5435,-1.5445,-1.5447,-1.5462,-1.5461,-1.5471,-1.5475,-1.5495,-1.5505,-1.5496,-1.553,-1.5526,-1.5528,-1.5523,-1.5525,-1.5526,-1.5523,-1.5496,0,0,0,0,0,-1.5369,-1.5382,-1.5397,-1.5414,-1.542,-1.5431,-1.544,-1.5445,-1.5458,-1.5464,-1.5476,-1.549,-1.5506,-1.5516,-1.5532,-1.5554,-1.5558,-1.5563,-1.5564,-1.5565,-1.5567,-1.5579,-1.5581,-1.5557,-1.5557,-1.5557,0,0,-1.5374,-1.5385,-1.5393,-1.5414,-1.5424,-1.5438,-1.5436,-1.5451,-1.5462,-1.5467,-1.5487,-1.5496,-1.5512,-1.5534,-1.5544,-1.5542,-1.5575,-1.5567,-1.5567,-1.5569,-1.558,-1.5583,-1.5585,-1.5558,-1.5558,-1.5557,0,0,-1.5389,-1.5399,-1.5414,-1.5424,-1.5439,-1.5447,-1.545,-1.5466,-1.5472,-1.5492,-1.5496,-1.551,-1.5537,-1.5548,-1.5557,-1.5577,-1.558,-1.5582,-1.5589,-1.5601,-1.5602,-1.5604,-1.5611,-1.5613,-1.5584,-1.5584,-1.5584,0,-1.5394,-1.5414,-1.5421,-1.5436,-1.5445,-1.545,-1.5465,-1.5475,-1.5495,-1.5501,-1.5499,-1.5532,-1.5544,-1.5568,-1.5572,-1.558,-1.5585,-1.558,-1.5601,-1.5603,-1.5605,-1.5611,-1.5614,-1.5584,-1.5584,-1.5584,-1.5584,0,-1.5419,-1.5433,-1.5443,-1.5461,-1.5471,-1.5487,-1.5496,-1.5507,-1.551,-1.5518,-1.5539,-1.5553,-1.5571,-1.5577,-1.5581,-1.5601,-1.56,-1.5599,-1.5595,-1.5607,-1.5613,-1.5616,-1.5585,-1.5585,-1.5585,-1.5585,0,0,-1.5435,-1.5456,-1.546,-1.5467,-1.5484,-1.5496,-1.5512,-1.5528,-1.5536,-1.555,-1.5564,-1.5586,-1.5586,-1.5596,-1.5602,-1.5612,-1.5627,-1.5611,-1.5611,-1.5613,-1.5649,-1.5649,-1.5651,-1.5629,-1.5629,-1.563,-1.5648,0,-1.5452,-1.5478,-1.5485,-1.5508,-1.5521,-1.5525,-1.5539,-1.5551,-1.5559,-1.5572,-1.5582,-1.5597,-1.5596,-1.5602,-1.5612,-1.5623,-1.5634,-1.5622,-1.5641,-1.5642,-1.5636,-1.5655,-1.5654,-1.5671,-1.565,-1.565,-1.5651,0,-1.5476,-1.5489,-1.5512,-1.5527,-1.5533,-1.5545,-1.556,-1.5573,-1.5587,-1.5592,-1.5604,-1.5608,-1.5625,-1.562,-1.5644,-1.5635,-1.5644,-1.565,-1.5651,-1.5653,-1.5646,-1.5656,-1.5676,-1.5678,-1.5655,-1.5654,-1.5654,0,-1.5484,-1.5508,-1.5525,-1.5531,-1.5549,-1.5557,-1.5565,-1.5579,-1.5589,-1.5603,-1.5609,-1.5625,-1.5634,-1.5647,-1.5656,-1.5652,-1.5679,-1.5675,-1.5684,-1.5684,-1.5689,-1.5688,-1.571,-1.5695,-1.5695,-1.5695,-1.5695,0,-1.5502,-1.5517,-1.5529,-1.5539,-1.5555,-1.5563,-1.5579,-1.5588,-1.56,-1.5612,-1.5618,-1.563,-1.5641,-1.5655,-1.5663,-1.5681,-1.5685,-1.569,-1.5692,-1.5689,-1.5688,-1.5694,-1.5693,-1.5696,-1.5696,-1.5696,-1.5696,0,-1.5514,-1.5523,-1.5542,-1.5557,-1.5561,-1.5572,-1.5585,-1.5596,-1.5604,-1.562,-1.5624,-1.5637,-1.5653,-1.5664,-1.5685,-1.5691,-1.571,-1.5712,-1.5705,-1.5705,-1.5713,-1.5712,-1.5739,-1.5743,-1.5727,-1.5727,-1.5727,0,-1.5525,-1.5536,-1.5551,-1.556,-1.5567,-1.5581,-1.559,-1.5599,-1.5608,-1.5625,-1.5634,-1.565,-1.5664,-1.569,-1.5702,-1.5718,-1.572,-1.5728,-1.5723,-1.5719,-1.572,-1.5718,-1.5719,-1.5729,-1.5729,-1.5729,-1.5729,0,-1.5543,-1.5546,-1.5559,-1.5573,-1.5583,-1.5595,-1.5607,-1.5614,-1.5625,-1.5636,-1.5652,-1.5662,-1.5683,-1.57,-1.5717,-1.5726,-1.573,-1.5731,-1.5734,-1.5731,-1.5726,-1.5728,-1.5706,-1.573,-1.573,-1.573,-1.573,-1.573,-1.5554,-1.5563,-1.5575,-1.5589,-1.5599,-1.561,-1.562,-1.5629,-1.5642,-1.5659,-1.5664,-1.5681,-1.5695,-1.5719,-1.5728,-1.5742,-1.5741,-1.5745,-1.5746,-1.5747,-1.5747,-1.5724,-1.5745,-1.5745,-1.5745,-1.5745,-1.5745,0,-1.5571,-1.5579,-1.5591,-1.5607,-1.5618,-1.562,-1.5633,-1.5642,-1.5657,-1.5669,-1.5682,-1.5701,-1.5717,-1.5729,-1.5746,-1.5755,-1.5757,-1.5759,-1.5758,-1.576,-1.5747,-1.5742,-1.5756,-1.5756,-1.5756,-1.5756,-1.5756,-1.5756,-1.5581,-1.5597,-1.5602,-1.5623,-1.5631,-1.5647,-1.5654,-1.5664,-1.5674,-1.5694,-1.5707,-1.5715,-1.5728,-1.5745,-1.576,-1.5763,-1.5769,-1.577,-1.5774,-1.5762,-1.5761,-1.5759,-1.5755,-1.5772,-1.5772,-1.5786,-1.5786,-1.5786]}]]